Location: Unspecified
(0.0000°N, 0.0000°E)
Time: 08:30:58
(UTC+01:00)

Cosmos 1812 Rocket - Visible Passes

Search period start: 27 February 2015 00:00
Search period end: 09 March 2015 00:00
Orbit: 605 x 635 km, 82.5° (Epoch: 26 February)

Date Brightness Start Highest point End Pass type
(mag) Time Alt. Az. Time Alt. Az. Time Alt. Az.
27 Feb 5.5 21:03:34 10° SW 21:07:25 28° W 21:11:08 10° NNW visible
28 Feb 4.6 19:43:47 10° SSE 19:47:21 25° E 19:51:01 10° NE visible
28 Feb 6.7 21:23:09 10° WSW 21:25:09 12° W 21:26:50 10° WNW visible
01 Mar 3.6 20:00:42 10° S 20:05:03 58° E 20:09:22 10° NNE visible
02 Mar 4.2 20:18:20 10° SSW 20:22:42 58° W 20:27:00 10° N visible
03 Mar 5.9 20:36:42 10° SW 20:40:23 25° W 20:43:55 10° NNW visible
04 Mar 7.0 20:56:51 10° W 20:58:08 11° W 20:59:02 10° WNW visible
05 Mar 3.5 19:33:37 10° S 19:38:00 65° E 19:42:21 10° NNE visible
06 Mar 4.5 19:51:21 10° SSW 19:55:39 51° W 19:59:53 10° N visible
07 Mar 6.3 20:09:50 10° SW 20:13:20 22° W 20:16:40 10° NW visible
08 Mar 6.6 06:41:04 10° NE 06:44:15 20° E 06:47:37 10° SE visible
